Flag for Ukraine Weather past 2 weeks in Odesa, Ukraine

Now
81 °F

Passing clouds.


Feels Like: 80 °F
Forecast: 66 / 83 °F
Wind: 15 mph from Northeast

Location: Odesa Airport

Current Time: Aug 1, 2015 at 3:32:25 PM

Latest Report: Aug 1, 2015 at 3:00 PM


Visibility: N/A

Pressure: 30.04 "Hg

Humidity: 37%

Dew point: 52 °F

Location of OdesaLocation

Historic Weather in Odesa — Graph

°F

Odesa temperature yesterday

Maximum temperature yesterday: 90 °F (at 3:30 PM)
Minimum temperature yesterday: 70 °F (at 2:30 AM)
Average temperature yesterday: 79 °F

Past Weeks' High & Low Weather Summary

 TemperatureHumidityPressure
High95 °F (Jul 25, 4:00 PM)100% (Jul 20, 6:00 AM)30.09 "Hg (Jul 20, 6:00 AM)
Low63 °F (Jul 20, 1:30 AM)16% (Jul 18, 6:30 PM)29.62 "Hg (Jul 26, 3:30 PM)
Average78 °F62%29.87 "Hg
* Reported Jul 17 2:00 PM — Aug 1 2:30 PM, Odesa, Weather by CustomWeather, © 2015

Note: Actual official high and low records may vary slightly from our data, if they occured in-between our weather recording intervals... More about our weather records

Advertising

Odesa weather history for previous 24 hours

 ConditionsComfort  
Time TempWeatherWind HumidityBarometerVisibility
2:30 PM
Sat, Aug 1
81 °FPassing clouds.13 mph39%30.04 "HgN/A
2:00 PM79 °FSunny.15 mph45%30.04 "Hg10 mi
1:30 PM79 °FPassing clouds.17 mph42%30.04 "HgN/A
1:00 PM79 °FPassing clouds.15 mph45%30.04 "HgN/A
12:30 PM77 °FScattered clouds.15 mph51%30.04 "HgN/A
12:00 PM75 °FScattered clouds.17 mph57%30.04 "HgN/A
11:30 AM75 °FPassing clouds.17 mph54%30.04 "HgN/A
11:00 AM73 °FPassing clouds.17 mph53%30.04 "HgN/A
10:30 AM73 °FPassing clouds.17 mph53%30.01 "HgN/A
10:00 AM72 °FPassing clouds.20 mph57%30.01 "HgN/A
9:30 AM72 °FPassing clouds.17 mph57%30.01 "HgN/A
9:00 AM70 °FPassing clouds.17 mph60%30.01 "HgN/A
8:30 AM68 °FSunny.15 mph69%29.98 "Hg10 mi
8:00 AM66 °FScattered clouds.17 mph73%29.98 "HgN/A
7:00 AM64 °FBroken clouds.17 mph83%29.95 "HgN/A
6:00 AM64 °FMostly cloudy.15 mph88%29.95 "HgN/A
5:30 AM64 °FPartly cloudy.15 mph88%29.92 "HgN/A
5:00 AM64 °FPartly cloudy.17 mph88%29.92 "HgN/A
4:30 AM66 °FPartly cloudy.15 mph88%29.92 "HgN/A
4:03 AM68 °FPassing clouds.17 mph83%29.89 "HgN/A
3:30 AM68 °FPassing clouds.15 mph88%29.89 "HgN/A
3:00 AM68 °FPassing clouds.17 mph94%29.89 "HgN/A
2:30 AM70 °FPassing clouds.13 mph88%29.89 "HgN/A
2:00 AM70 °FPassing clouds.13 mph88%29.89 "HgN/A
1:30 AM72 °FPassing clouds.10 mph83%29.89 "HgN/A
1:00 AM72 °FPassing clouds.13 mph83%29.86 "HgN/A
12:30 AM72 °FPartly cloudy.13 mph83%29.86 "HgN/A
12:00 AM72 °FOvercast.17 mph88%29.86 "HgN/A
11:30 PM
Fri, Jul 31
73 °FOvercast.17 mph83%29.86 "HgN/A
11:00 PM75 °FThundershowers. Overcast.10 mph74%29.86 "HgN/A
10:30 PM75 °FThundershowers. Partly cloudy.10 mph78%29.86 "HgN/A
10:00 PM77 °FThundershowers. Partly cloudy.6 mph74%29.86 "HgN/A
9:30 PM79 °FPartly cloudy.6 mph70%29.83 "HgN/A
9:00 PM79 °FBroken clouds.8 mph70%29.83 "HgN/A
8:30 PM79 °FBroken clouds.8 mph70%29.83 "HgN/A
8:00 PM81 °FBroken clouds.8 mph66%29.80 "HgN/A
7:30 PM84 °FBroken clouds.6 mph51%29.80 "HgN/A
7:00 PM84 °FBroken clouds.No wind48%29.80 "HgN/A
6:30 PM82 °FBroken clouds.No wind58%29.80 "HgN/A
6:00 PM82 °FBroken clouds.1 mph55%29.80 "HgN/A
5:30 PM84 °FBroken clouds.3 mph51%29.80 "HgN/A
5:00 PM86 °FThunderstorms. Broken clouds.6 mph43%29.80 "HgN/A
4:30 PM86 °FBroken clouds.6 mph49%29.83 "HgN/A
4:00 PM90 °FBroken clouds.1 mph43%29.83 "HgN/A
3:30 PM90 °FScattered clouds.3 mph41%29.83 "HgN/A
3:00 PM88 °FScattered clouds.1 mph43%29.83 "HgN/A
Weather by CustomWeather, © 2015

See weather overviewHow to use our weather pages